Вернуться в каталог

STARLINK-36081

АктивенСвязьVLEO
NORAD 67498·PAYLOAD·🇺🇸 United States

Запущен Jan 18, 2026 с Cape Canaveral Space Force Station

Loading…

Ближайшие Пролёты (ближайшие 24 часа)

TLE

СвежийSource: CelesTrak SupGP

Эпоха: Sep 15, 2026, 03:25 UTC

1 67498C 26012F   26258.14284722  .00043518  00000+0  15761-2 0  2588
2 67498  43.0006 324.6203 0001423 261.5386 136.2938 15.27559843    12

Отслеживайте STARLINK-36081 в реальном времени с AllMySat

Download on the App Store